Location: Codigoro
(44.8311°N, 12.1142°E)
Time: 22:33:05
(UTC+00:00)

Daily predictions for brighter satellites

Satellite Brightness Start Highest point End
(mag) Time Altitude Azimuth Time Altitude Azimuth Time Altitude Azimuth
ARGOS 4.1 17:24:46 10° ESE 17:29:11 27° ENE 17:33:38 10° N
NOSS 2-2 (C) 3.4 17:25:46 10° SW 17:29:14 69° NW 17:33:05 10° NE
NOSS 3-2 (A) 4.2 17:22:19 10° NW 17:29:43 64° NE 17:38:05 10° SE
CZ-2C R/B 4.2 17:29:43 10° NE 17:32:51 15° E 17:35:58 10° ESE
Meteor 1-21 4.4 17:31:53 10° NNW 17:37:30 80° W 17:43:04 10° S
Cosmos 2151 Rocket 4.3 17:34:28 10° SSE 17:38:25 32° E 17:42:25 10° NNE
Lacrosse 5 rocket 3.7 17:36:57 10° NW 17:39:48 17° N 17:42:44 10° NE
Cosmos 1975 Rocket 3.2 17:36:27 10° NNW 17:40:47 78° W 17:45:04 10° S
HJ-1C 4.1 17:40:50 10° SE 17:43:50 33° ENE 17:46:50 10° N
COSMO-SKYMED 1 3.5 17:46:09 10° N 17:50:24 53° WNW 17:54:37 10° SSW
Shenzhou-11 Module 3.3 17:49:34 10° SSW 17:50:50 14° SSE 17:51:33 12° SE
Ariane Rocket 4.1 17:48:18 10° ESE 17:52:22 25° ENE 17:56:27 10° N
H-2A R/B 2.2 17:48:16 10° SE 17:53:06 52° ENE 17:58:06 10° N
Nadezhda 4 Rocket 4.2 17:47:43 10° N 17:53:36 46° ENE 17:59:28 10° SSE
SJ 16-02 4.4 17:53:01 10° W 17:55:18 14° NW 17:57:34 10° NNW
Exosat Rocket 4.1 17:52:21 10° S 17:57:22 36° ESE 18:01:55 10° NE
Cosmos 2263 Rocket 4.1 17:53:36 10° WSW 17:58:33 32° NW 18:03:34 10° N
USA 116 3.6 17:56:57 10° NNE 18:00:39 75° ESE 18:04:50 10° S
COSMOS 2406 4.5 17:58:07 10° N 18:02:39 24° NE 18:05:51 15° E
Cosmos 1844 Rocket 2.6 17:57:11 10° SSW 18:02:42 69° ESE 18:08:17 10° NNE
Cosmos 372 Rocket 4.5 17:59:23 10° SSW 18:04:35 66° WNW 18:09:48 10° NNE
Cosmos 1707 3.0 18:02:04 10° NNW 18:05:53 69° W 18:09:41 10° S
Cosmos 2278 Rocket 4.1 18:09:59 11° ENE 18:09:59 11° ENE 18:10:20 10° ENE
Cosmos 1626 3.8 18:04:58 10° NNE 18:07:17 16° ENE 18:07:28 16° ENE
NOSS 3-2 (C) 4.1 18:00:31 10° NW 18:08:00 69° NE 18:16:08 11° SE
CZ-2C R/B 3.5 18:06:48 10° SW 18:08:09 12° SSW 18:09:29 10° S
Cosmos 1844 3.7 18:04:32 10° S 18:10:09 64° ESE 18:15:45 10° NNE
Cosmos 2034 Rocket 4.0 18:04:01 10° S 18:10:16 63° E 18:16:31 10° NNE
NOSS 3-4 (A) 3.8 18:06:18 10° S 18:11:41 38° ESE 18:17:20 10° NE
NOSS 3-4 (C) 3.8 18:06:26 10° S 18:11:48 38° ESE 18:17:26 10° NE
ISS -2.2 18:08:57 10° WNW 18:12:00 30° NNW 18:14:49 11° NE
USA 186 2.8 18:11:03 22° ESE 18:12:12 28° ENE 18:15:04 10° N
Meteor 1-12 Rocket 4.4 18:07:50 10° SSW 18:13:43 84° W 18:19:32 10° N
Meteor 2-5 Rocket 4.3 18:08:33 10° N 18:13:49 37° ENE 18:18:15 14° SE
Lacrosse 4 Rocket 3.7 18:15:01 10° NNE 18:15:34 10° NE 18:16:07 10° NE
Cosmos 1300 Rocket 3.9 18:14:40 10° SSW 18:19:03 70° W 18:23:30 10° N
Okean 1 Rocket 3.4 18:18:02 10° SSE 18:22:15 42° E 18:26:31 10° NNE
Resurs 01 Rocket 3.4 18:25:52 15° ENE 18:25:52 15° ENE 18:28:21 10° NNE
SL-14 R/B 4.5 18:23:13 10° NNE 18:26:27 24° ENE 18:26:27 24° ENE
CENTAUR R/B 3.2 18:18:59 10° NW 18:27:07 81° NE 18:34:46 15° SE
Cosmos 1833 Rocket 3.8 18:23:28 10° N 18:28:13 27° NE 18:30:12 22° E
CSL-04 Rocket 4.2 18:25:49 10° S 18:31:12 63° WSW 18:36:42 10° NNW
Cosmos 1766 3.5 18:29:32 10° SSE 18:33:16 45° E 18:37:04 10° NNE
Okean 2 Rocket 4.1 18:29:19 10° SSW 18:33:39 48° WNW 18:38:00 10° N
YAOGAN 1 4.3 18:30:05 10° SSW 18:34:00 33° W 18:37:56 10° NNW
ATLAS 2AS CENTAUR R/B 3.1 18:26:27 10° SSW 18:34:06 56° ESE 18:41:47 10° NE
Cosmos 1025 Rocket 3.9 18:31:01 10° NNW 18:35:17 51° W 18:39:32 10° S
Cosmos 1634 Rocket 4.2 18:32:13 10° SSE 18:38:02 46° E 18:43:56 10° NNE
ATLAS 3B R/B 3.3 18:32:51 10° NNW 18:39:15 40° NE 18:42:35 26° E
SPOT 3 Rocket 4.3 18:40:10 29° E 18:41:11 31° ENE 18:45:42 10° N
Abrixas rocket 1.6 18:39:19 10° WNW 18:42:10 86° SSW 18:42:11 86° S
CREW DRAGON DEMO-1 DEB 2.6 18:41:05 10° WNW 18:44:07 88° SW 18:44:16 80° SE
Cosmos 1536 Rocket 4.3 18:40:43 10° NNW 18:45:05 55° W 18:49:27 10° S
Cosmos 1125 Rocket 3.9 18:41:13 10° SSW 18:46:30 68° WNW 18:51:49 10° NNE
Resurs 1-3 4.2 18:48:54 35° ENE 18:48:58 35° ENE 18:52:57 10° N
SJ-6B 2.6 18:48:31 52° ESE 18:49:09 63° ENE 18:52:54 10° N
CZ-4 R/B 4.4 18:48:53 10° SW 18:51:47 18° W 18:54:40 10° NW
Cosmos 1892 Rocket 4.3 18:47:55 10° N 18:51:25 33° ENE 18:51:25 33° ENE
Cosmos 2195 Rocket 4.4 18:49:16 10° N 18:55:31 76° E 19:00:07 19° SSE
Cosmos 1627 Rocket 4.5 18:50:44 10° N 18:57:09 71° E 19:01:24 22° SSE
Cosmos 2285 Rocket 4.1 18:50:52 10° SSW 18:57:10 77° WNW 19:03:34 10° NNE
Cosmos 1674 3.4 18:53:42 10° NNW 18:57:27 53° W 19:00:17 16° SSW
Cosmos 2026 Rocket 4.0 18:52:01 10° N 18:58:24 69° E 19:02:16 25° SSE
Cosmos 1092 Rocket 3.9 18:52:22 10° N 18:58:34 88° ENE 19:04:17 13° S
MOS 1 Rocket 4.4 18:59:17 10° N 19:03:22 40° WNW 19:07:22 10° SW
Cosmos 1428 Rocket 4.4 19:00:41 10° N 19:06:57 75° E 19:10:06 31° SSE
TSX-5 4.1 19:04:42 10° SW 19:08:30 75° WNW 19:13:25 10° NNE
ARGOS 4.1 19:04:05 10° S 19:09:12 45° W 19:14:23 10° NNW
CZ-2C R/B 2.8 19:08:10 10° NNE 19:13:46 82° WNW 19:19:22 10° SSW
Cosmos 1340 Rocket 3.7 19:15:11 39° NNE 19:15:11 39° NNE 19:17:48 10° NNE
Cosmos 2279 Rocket 4.0 19:12:59 44° SE 19:14:33 55° E 19:20:39 10° NNE
Cosmos 1733 3.6 19:13:48 30° SSW 19:15:30 61° W 19:19:18 10° N
MOS 1 4.4 19:13:05 25° S 19:16:29 76° WSW 19:22:14 10° NNW
Lacrosse 5 rocket 3.2 19:16:49 10° NW 19:20:20 22° NNE 19:20:43 22° NNE
Cosmos 2082 Rocket 2.9 19:16:11 10° NNW 19:21:17 38° NE 19:21:17 38° NE
Cosmos 2098 Rocket 4.4 19:15:22 10° N 19:21:19 41° ENE 19:21:19 41° ENE
DMSP B5D2-2 4.2 19:18:16 10° N 19:23:35 77° WNW 19:28:51 10° SSW
BREEZE-M R/B 3.8 19:16:10 10° W 19:24:12 57° NNW 19:24:25 55° N
BREEZE-M DEB (TANK) 4.3 19:20:29 10° W 19:24:16 43° SSW 19:27:36 30° SSE
OBJECT-B 2.9 19:28:48 24° NNW 19:28:48 24° NNW 19:30:13 10° NNW
Cosmos 2142 Rocket 4.3 19:24:37 27° S 19:28:15 81° E 19:34:29 10° N
Ariane Rocket 3.9 19:28:05 22° SSW 19:31:04 46° W 19:35:57 10° NNW
H-2A R/B 4.4 19:29:12 10° SW 19:32:52 20° W 19:36:38 10° NW
Milstar 3 Cent rocket 4.2 19:30:02 10° SW 19:32:39 14° SSW 19:32:39 14° SSW
USA 234 4.3 19:38:14 28° S 19:38:14 28° S 19:41:21 10° SSW
Terra 4.4 19:42:51 10° NNE 19:42:51 10° NNE 19:42:55 10° NNE
Cosmos 1626 3.8 19:39:17 10° NNW 19:42:02 33° WNW 19:42:02 33° WNW
Okean 1-7 Rocket 4.4 19:38:36 10° N 19:41:51 46° N 19:41:51 46° N
COSMOS 2406 3.4 19:41:48 10° NNW 19:47:26 65° WSW 19:47:56 61° SW
ISS -0.9 19:46:34 10° NW 19:47:46 17° NW 19:47:46 17° NW
Cosmos 2278 Rocket 2.4 19:44:54 10° SSW 19:51:32 62° N 19:56:16 10° NNE
Lacrosse 4 Rocket 3.3 19:51:00 10° NNW 19:52:52 26° NNW 19:52:52 26° NNW
Cosmos 909 Rocket 4.1 19:53:54 10° NNW 19:59:55 65° NNE 19:59:55 65° NNE
Resurs 01 Rocket 3.0 20:03:26 36° NNW 20:03:26 36° NNW 20:06:12 10° NNW
Cosmos 2266 Rocket 4.3 19:55:55 10° N 20:00:34 51° NNE 20:00:34 51° NNE
NOSS 3-4 (A) 4.4 19:56:46 10° WSW 20:02:26 45° NW 20:08:33 10° NNE
NOSS 3-4 (C) 4.4 19:56:51 10° WSW 20:02:32 45° NW 20:08:40 10° NNE
Meteor 2-19 Rocket 4.5 19:57:43 10° NNW 20:03:47 75° W 20:03:47 75° W
Cosmos 1833 Rocket 3.3 20:06:58 10° NNW 20:11:54 52° W 20:11:54 52° W
Cosmos 2251 Rocket 4.4 20:10:00 10° NNW 20:13:44 46° NNW 20:13:44 46° NNW
ATLAS 2AS CENTAUR R/B 3.9 20:17:46 10° WSW 20:25:22 46° NW 20:32:51 10° NNE
ATLAS 3B R/B 3.2 20:23:29 10° NW 20:29:50 54° WSW 20:29:50 54° WSW
Lacrosse 5 rocket 4.5 20:55:42 10° NW 20:56:20 14° NW 20:56:20 14° NW
Cosmos 2082 Rocket 4.1 21:00:23 10° NW 21:03:08 25° WNW 21:03:08 25° WNW
